| time (UTC) | temp C | wind direction | speed KPH | gust KPH | rain 1hr cm | rain 24hr cm | rain mn cm | humidity % | barometer mb |
| 20260503001612 | 11 | 253 | 6.4 | 17.7 | 0.00 | 0.00 | 0.00 | 91 | 1010.5 |
| 20260503000051 | 11 | 217 | 8.0 | 12.9 | 0.00 | 0.00 | 0.00 | 91 | 1010.6 |
| 20260502234548 | 11 | 215 | 8.0 | 11.3 | 0.00 | 0.00 | 0.00 | 90 | 1010.5 |
| 20260502233047 | 12 | 213 | 4.8 | 11.3 | 0.00 | 0.00 | 0.00 | 90 | 1010.6 |
| 20260502231545 | 12 | 215 | 8.0 | 14.5 | 0.00 | 0.00 | 0.00 | 89 | 1010.7 |
| 20260502230045 | 12 | 209 | 9.7 | 16.1 | 0.00 | 0.00 | 0.00 | 88 | 1010.8 |
| 20260502224541 | 12 | 223 | 11.3 | 14.5 | 0.00 | 0.00 | 0.00 | 87 | 1010.8 |
| 20260502223037 | 13 | 217 | 9.7 | 14.5 | 0.00 | 0.00 | 0.00 | 86 | 1010.9 |
| 20260502221534 | 13 | 212 | 9.7 | 12.9 | 0.00 | 0.00 | 0.00 | 84 | 1010.8 |
| 20260502220035 | 13 | 202 | 6.4 | 11.3 | 0.00 | 0.00 | 0.00 | 82 | 1010.7 |
| 20260502214529 | 14 | 209 | 8.0 | 11.3 | 0.00 | 0.00 | 0.00 | 80 | 1010.9 |
| 20260502213031 | 14 | 210 | 8.0 | 11.3 | 0.00 | 0.00 | 0.00 | 79 | 1011.0 |
| 20260502211527 | 15 | 209 | 6.4 | 9.7 | 0.00 | 0.00 | 0.00 | 79 | 1011.2 |
| 20260502210027 | 15 | 216 | 4.8 | 9.7 | 0.00 | 0.00 | 0.00 | 79 | 1011.2 |
| 20260502204534 | 15 | 214 | 3.2 | 8.0 | 0.00 | 0.00 | 0.00 | 79 | 1011.2 |
| 20260502203033 | 15 | 227 | 4.8 | 9.7 | 0.00 | 0.00 | 0.00 | 76 | 1011.3 |
| 20260502201527 | 15 | 236 | 3.2 | 8.0 | 0.00 | 0.00 | 0.00 | 73 | 1011.4 |
| 20260502200048 | 16 | 235 | 3.2 | 6.4 | 0.00 | 0.00 | 0.00 | 72 | 1011.5 |
| 20260502194524 | 16 | 236 | 1.6 | 6.4 | 0.00 | 0.00 | 0.00 | 71 | 1011.4 |
| 20260502193025 | 16 | 240 | 4.8 | 6.4 | 0.00 | 0.00 | 0.00 | 72 | 1011.4 |
| 20260502191524 | 16 | 233 | 4.8 | 8.0 | 0.00 | 0.00 | 0.00 | 71 | 1011.4 |
| 20260502190023 | 17 | 227 | 3.2 | 12.9 | 0.00 | 0.00 | 0.00 | 71 | 1011.4 |
| 20260502184525 | 17 | 245 | 12.9 | 19.3 | 0.00 | 0.00 | 0.00 | 73 | 1011.8 |
| 20260502183022 | 17 | 267 | 14.5 | 22.5 | 0.00 | 0.00 | 0.00 | 71 | 1011.8 |
| 20260502181526 | 18 | 269 | 12.9 | 22.5 | 0.00 | 0.00 | 0.00 | 64 | 1011.6 |
| 20260502163019 | 22 | 245 | 16.1 | 30.6 | 0.00 | 0.00 | 0.00 | 35 | 1011.2 |
| 20260502161515 | 22 | 228 | 17.7 | 30.6 | 0.00 | 0.00 | 0.00 | 33 | 1011.3 |
| 20260502151512 | 24 | 243 | 14.5 | 25.7 | 0.00 | 0.00 | 0.00 | 37 | 1011.7 |
| 20260502130105 | 23 | 161 | 11.3 | 24.1 | 0.00 | 0.00 | 0.00 | 52 | 1013.0 |
| 20260502123050 | 23 | 225 | 16.1 | 27.4 | 0.00 | 0.00 | 0.00 | 42 | 1013.3 |
| 20260502121558 | 23 | 236 | 12.9 | 25.7 | 0.00 | 0.00 | 0.00 | 46 | 1013.5 |
| 20260502120105 | 23 | 219 | 16.1 | 30.6 | 0.00 | 0.00 | 0.00 | 44 | 1013.7 |
| 20260502114548 | 22 | 232 | 12.9 | 27.4 | 0.00 | 0.00 | 0.00 | 44 | 1013.9 |
| 20260502113054 | 22 | 246 | 16.1 | 25.7 | 0.00 | 0.00 | 0.00 | 45 | 1014.2 |
| 20260502111544 | 22 | 202 | 16.1 | 25.7 | 0.00 | 0.00 | 0.00 | 49 | 1014.3 |
| 20260502110037 | 22 | 239 | 14.5 | 25.7 | 0.00 | 0.00 | 0.00 | 54 | 1014.5 |
| 20260502104534 | 21 | 196 | 11.3 | 22.5 | 0.00 | 0.00 | 0.00 | 58 | 1014.6 |
| 20260502103055 | 21 | 167 | 12.9 | 20.9 | 0.00 | 0.00 | 0.00 | 61 | 1014.7 |
| 20260502101538 | 20 | 166 | 12.9 | 24.1 | 0.00 | 0.00 | 0.00 | 61 | 1014.8 |
| 20260502091514 | 19 | 163 | 12.9 | 17.7 | 0.00 | 0.00 | 0.00 | 69 | 1015.2 |
| 20260502070035 | 15 | 189 | 12.9 | 17.7 | 0.00 | 0.00 | 0.00 | 77 | 1016.1 |
| 20260502064536 | 14 | 180 | 12.9 | 19.3 | 0.00 | 0.00 | 0.00 | 78 | 1016.1 |
| 20260502063026 | 14 | 190 | 12.9 | 22.5 | 0.00 | 0.00 | 0.00 | 78 | 1016.2 |
| 20260502061523 | 13 | 190 | 16.1 | 22.5 | 0.00 | 0.00 | 0.00 | 78 | 1016.2 |
| 20260502060018 | 13 | 203 | 16.1 | 24.1 | 0.00 | 0.00 | 0.00 | 80 | 1016.2 |
| 20260502054514 | 12 | 194 | 14.5 | 25.7 | 0.00 | 0.00 | 0.00 | 83 | 1016.3 |
| 20260502053009 | 11 | 192 | 14.5 | 24.1 | 0.00 | 0.00 | 0.00 | 85 | 1016.3 |
| 20260502051506 | 11 | 194 | 14.5 | 19.3 | 0.00 | 0.00 | 0.00 | 86 | 1016.5 |
| 20260502050100 | 11 | 200 | 11.3 | 17.7 | 0.00 | 0.00 | 0.00 | 88 | 1016.6 |
| 20260502044556 | 10 | 194 | 9.7 | 16.1 | 0.00 | 0.00 | 0.00 | 88 | 1016.7 |
| 20260502043100 | 10 | 195 | 11.3 | 16.1 | 0.00 | 0.00 | 0.00 | 88 | 1016.8 |
| 20260502041549 | 10 | 198 | 11.3 | 16.1 | 0.00 | 0.00 | 0.00 | 88 | 1016.8 |
| 20260502040051 | 10 | 192 | 9.7 | 16.1 | 0.00 | 0.00 | 0.00 | 88 | 1017.1 |
| 20260502034544 | 10 | 205 | 9.7 | 14.5 | 0.00 | 0.00 | 0.00 | 87 | 1017.3 |
| 20260502033043 | 10 | 184 | 8.0 | 16.1 | 0.00 | 0.00 | 0.00 | 86 | 1017.5 |
| 20260502031538 | 10 | 182 | 8.0 | 14.5 | 0.00 | 0.00 | 0.00 | 86 | 1017.9 |
| 20260502030043 | 10 | 192 | 9.7 | 16.1 | 0.00 | 0.00 | 0.00 | 85 | 1018.2 |
| 20260502024534 | 10 | 196 | 9.7 | 14.5 | 0.00 | 0.00 | 0.00 | 84 | 1018.4 |
| 20260502023032 | 10 | 193 | 8.0 | 14.5 | 0.00 | 0.00 | 0.00 | 84 | 1018.5 |
| 20260502021531 | 10 | 197 | 9.7 | 14.5 | 0.00 | 0.00 | 0.00 | 84 | 1018.7 |
| 20260502020027 | 10 | 194 | 8.0 | 12.9 | 0.00 | 0.00 | 0.00 | 84 | 1018.9 |
| 20260502014524 | 10 | 184 | 6.4 | 12.9 | 0.00 | 0.00 | 0.00 | 83 | 1019.0 |
| 20260502013022 | 10 | 198 | 8.0 | 14.5 | 0.00 | 0.00 | 0.00 | 83 | 1019.3 |
| 20260502011520 | 10 | 186 | 8.0 | 14.5 | 0.00 | 0.00 | 0.00 | 83 | 1019.5 |
| 20260502010021 | 10 | 196 | 9.7 | 14.5 | 0.00 | 0.00 | 0.00 | 83 | 1019.7 |
| 20260502004516 | 11 | 202 | 9.7 | 16.1 | 0.00 | 0.00 | 0.00 | 83 | 1019.9 |
| 20260502003014 | 11 | 194 | 9.7 | 12.9 | 0.00 | 0.00 | 0.00 | 82 | 1020.0 |